DAWOW LOWI-EDMO

Flight info

Callsign DAWOW
Flight time 0h 23m
Altitude 13000
Route KOGOL DCT NINUR
Aircraft E190/M-SDE1E2E3FGHIJ3J4J7P2RWXY/LB1D1G1

Departure

Time 2026-04-25 18:39
Airport Innsbruck Airport (LOWI)

Arrival

Time 2026-04-25 19:03
Airport Oberpfaffenhofen Airport (EDMO)
Time Latitude Longitude Altitude Speed Heading
2026-04-25 18:19 47.25848 11.35240 1920 ft 0 kts 171°
2026-04-25 18:28 47.25848 11.35241 1921 ft 0 kts 172°
2026-04-25 18:32 47.25853 11.35239 1922 ft 2 kts 173°
2026-04-25 18:32 47.25868 11.35241 1924 ft 2 kts 197°
2026-04-25 18:32 47.25882 11.35250 1926 ft 2 kts 213°
2026-04-25 18:32 47.25893 11.35264 1928 ft 2 kts 231°
2026-04-25 18:33 47.25901 11.35283 1927 ft 2 kts 249°
2026-04-25 18:33 47.25903 11.35296 1925 ft 1 kts 259°
2026-04-25 18:33 47.25904 11.35305 1923 ft 0 kts 261°
2026-04-25 18:35 47.25903 11.35294 1920 ft 0 kts 261°
2026-04-25 18:35 47.25899 11.35256 1920 ft 7 kts 260°
2026-04-25 18:35 47.25885 11.35145 1920 ft 14 kts 261°
2026-04-25 18:36 47.25867 11.34962 1922 ft 21 kts 261°
2026-04-25 18:36 47.25842 11.34719 1922 ft 26 kts 261°
2026-04-25 18:36 47.25810 11.34430 1924 ft 29 kts 261°
2026-04-25 18:36 47.25778 11.34131 1925 ft 28 kts 260°
2026-04-25 18:37 47.25791 11.33929 1926 ft 13 kts 306°
2026-04-25 18:37 47.25843 11.33806 1926 ft 14 kts 306°
2026-04-25 18:37 47.25904 11.33682 1926 ft 15 kts 306°
2026-04-25 18:37 47.25927 11.33540 1926 ft 16 kts 261°
2026-04-25 18:38 47.25905 11.33354 1927 ft 20 kts 259°
2026-04-25 18:38 47.25850 11.33184 1927 ft 8 kts 221°
2026-04-25 18:38 47.25861 11.33117 1927 ft 7 kts 348°
2026-04-25 18:38 47.25887 11.33179 1927 ft 10 kts 82°
2026-04-25 18:39 47.25928 11.33549 1926 ft 81 kts 80°
2026-04-25 18:39 47.26065 11.34834 1938 ft 164 kts 79°
2026-04-25 18:39 47.26259 11.36539 2716 ft 177 kts 78°
2026-04-25 18:39 47.26445 11.38307 3546 ft 177 kts 79°
2026-04-25 18:40 47.26602 11.40217 3993 ft 203 kts 82°
2026-04-25 18:40 47.26733 11.42442 4474 ft 236 kts 80°
2026-04-25 18:40 47.27142 11.44937 4997 ft 264 kts 69°
2026-04-25 18:40 47.27799 11.47386 6185 ft 264 kts 63°
2026-04-25 18:41 47.28615 11.49775 7269 ft 269 kts 58°
2026-04-25 18:41 47.29545 11.52168 8285 ft 276 kts 62°
2026-04-25 18:41 47.30197 11.54796 9499 ft 276 kts 70°
2026-04-25 18:41 47.30733 11.57401 10711 ft 271 kts 69°
2026-04-25 18:42 47.31406 11.59999 11618 ft 279 kts 62°
2026-04-25 18:42 47.31691 11.60856 11844 ft 284 kts 59°
2026-04-25 18:42 47.33325 11.65274 13043 ft 306 kts 61°
2026-04-25 18:42 47.34325 11.68177 13171 ft 329 kts 60°
2026-04-25 18:43 47.35352 11.71376 13189 ft 366 kts 65°
2026-04-25 18:43 47.36325 11.74936 13214 ft 382 kts 68°
2026-04-25 18:43 47.37212 11.78614 13234 ft 385 kts 70°
2026-04-25 18:43 47.37867 11.82435 13221 ft 384 kts 76°
2026-04-25 18:44 47.38471 11.86267 13236 ft 384 kts 73°
2026-04-25 18:44 47.39202 11.90056 13260 ft 385 kts 72°
2026-04-25 18:44 47.40093 11.93777 13202 ft 383 kts 66°
2026-04-25 18:44 47.41310 11.97220 13117 ft 378 kts 50°
2026-04-25 18:45 47.43270 11.99668 13154 ft 371 kts 24°
2026-04-25 18:45 47.45733 12.00611 13174 ft 365 kts 359°
2026-04-25 18:45 47.48170 11.99855 13128 ft 360 kts 332°
2026-04-25 18:45 47.49996 11.97446 13153 ft 357 kts 301°
2026-04-25 18:46 47.50634 11.93947 13123 ft 360 kts 270°
2026-04-25 18:46 47.50100 11.90324 13146 ft 367 kts 248°
2026-04-25 18:46 47.49074 11.86896 13142 ft 367 kts 249°
2026-04-25 18:46 47.48180 11.83374 13174 ft 365 kts 255°
2026-04-25 18:47 47.47829 11.79690 12948 ft 362 kts 272°
2026-04-25 18:47 47.48195 11.76036 13146 ft 359 kts 289°
2026-04-25 18:47 47.49315 11.72796 13125 ft 359 kts 303°
2026-04-25 18:47 47.50686 11.69729 13231 ft 360 kts 303°
2026-04-25 18:48 47.52030 11.66632 13207 ft 360 kts 302°
2026-04-25 18:48 47.53351 11.63492 13174 ft 360 kts 302°
2026-04-25 18:48 47.54587 11.60286 13174 ft 360 kts 299°
2026-04-25 18:48 47.55794 11.57048 13170 ft 359 kts 300°
2026-04-25 18:49 47.57005 11.53826 13171 ft 359 kts 300°
2026-04-25 18:49 47.58219 11.50606 13164 ft 358 kts 300°
2026-04-25 18:49 47.59425 11.47408 13152 ft 359 kts 300°
2026-04-25 18:49 47.60637 11.44192 12796 ft 358 kts 300°
2026-04-25 18:50 47.61842 11.41018 12297 ft 345 kts 302°
2026-04-25 18:50 47.63400 11.38430 11813 ft 338 kts 318°
2026-04-25 18:50 47.65133 11.36160 11358 ft 336 kts 318°
2026-04-25 18:50 47.66898 11.33849 10884 ft 334 kts 317°
2026-04-25 18:51 47.68617 11.31592 10408 ft 332 kts 317°
2026-04-25 18:51 47.69212 11.30811 10254 ft 331 kts 317°
2026-04-25 18:51 47.72061 11.27275 9259 ft 317 kts 330°
2026-04-25 18:51 47.74145 11.26456 8643 ft 313 kts 355°
2026-04-25 18:52 47.76300 11.26280 8039 ft 306 kts 353°
2026-04-25 18:52 47.78385 11.26028 7439 ft 302 kts 353°
2026-04-25 18:52 47.80439 11.25789 6976 ft 293 kts 352°
2026-04-25 18:52 47.82445 11.25568 6573 ft 283 kts 353°
2026-04-25 18:53 47.84369 11.25365 6171 ft 276 kts 353°
2026-04-25 18:53 47.86247 11.25163 5832 ft 267 kts 353°
2026-04-25 18:53 47.88074 11.24970 5498 ft 259 kts 353°
2026-04-25 18:53 47.89830 11.24901 5287 ft 247 kts 356°
2026-04-25 18:54 47.93098 11.24829 4946 ft 225 kts 356°
2026-04-25 18:54 47.94632 11.24791 4865 ft 213 kts 356°
2026-04-25 18:54 47.96075 11.24754 4720 ft 206 kts 356°
2026-04-25 18:55 47.97506 11.24709 4457 ft 205 kts 356°
2026-04-25 18:55 47.98906 11.24657 4195 ft 198 kts 355°
2026-04-25 18:55 48.00251 11.24556 3906 ft 190 kts 353°
2026-04-25 18:55 48.01480 11.24387 3681 ft 161 kts 352°
2026-04-25 18:56 48.02540 11.24193 3370 ft 146 kts 350°
2026-04-25 18:56 48.03475 11.23954 3128 ft 132 kts 347°
2026-04-25 18:56 48.04371 11.23760 2896 ft 130 kts 360°
2026-04-25 18:56 48.05208 11.24257 2714 ft 132 kts 34°
2026-04-25 18:57 48.05860 11.25221 2489 ft 131 kts 38°
2026-04-25 18:57 48.06530 11.26113 2278 ft 129 kts 37°
2026-04-25 18:57 48.07191 11.27025 2046 ft 129 kts 40°
2026-04-25 18:57 48.07409 11.27321 1970 ft 128 kts 38°
2026-04-25 18:58 48.08480 11.28753 2104 ft 136 kts 38°
2026-04-25 18:58 48.09536 11.31034 2774 ft 160 kts 79°
2026-04-25 18:58 48.09180 11.32738 2900 ft 195 kts 132°
2026-04-25 18:59 48.06527 11.33355 2978 ft 203 kts 205°
2026-04-25 18:59 48.04056 11.31447 3040 ft 200 kts 210°
2026-04-25 19:00 48.02293 11.28675 2999 ft 168 kts 270°
2026-04-25 19:00 48.02542 11.27246 3125 ft 131 kts 304°
2026-04-25 19:01 48.03936 11.25544 3096 ft 129 kts 331°
2026-04-25 19:01 48.04705 11.25031 2961 ft 121 kts 345°
2026-04-25 19:01 48.05562 11.25045 2617 ft 126 kts 15°
2026-04-25 19:01 48.06294 11.25780 2345 ft 129 kts 39°
2026-04-25 19:02 48.07580 11.27548 1940 ft 122 kts 40°
2026-04-25 19:02 48.08148 11.28322 1919 ft 100 kts 42°
2026-04-25 19:02 48.08601 11.28939 1909 ft 67 kts 43°
2026-04-25 19:03 48.08830 11.29237 1904 ft 13 kts
2026-04-25 19:03 48.08862 11.29126 1904 ft 7 kts 271°
2026-04-25 19:03 48.08861 11.29036 1904 ft 9 kts 269°
2026-04-25 19:04 48.08854 11.28822 1904 ft 8 kts 246°
2026-04-25 19:04 48.08818 11.28753 1905 ft 8 kts 229°
2026-04-25 19:05 48.08821 11.28690 1905 ft 0 kts 310°